Location: Ee
(53.3301°N, 6.1022°E)
Time: 13:35:50
(UTC+00:00)

Daily predictions for brighter satellites

Satellite Brightness Start Highest point End
(mag) Time Altitude Azimuth Time Altitude Azimuth Time Altitude Azimuth
Cosmos 2084 3.7 20:40:11 10° SSW 20:44:03 41° SE 20:47:47 10° ENE
SPOT 3 Rocket 3.6 20:39:39 10° SSE 20:44:50 80° ENE 20:50:06 10° NNW
NOSS 2-2 (E) 3.1 20:48:29 10° SSW 20:51:32 41° SE 20:54:33 10° ENE
NOSS 2-2 (C) 2.6 20:48:44 10° SW 20:51:50 63° SE 20:55:01 10° NE
Nadezhda 3 Rocket 4.2 20:45:56 10° NNW 20:52:04 73° W 20:58:12 10° S
Cosmos 1544 Rocket 3.7 20:49:13 10° N 20:53:32 58° ENE 20:57:47 10° SSE
SeaSat 1 4.2 20:49:36 10° E 20:53:32 25° NE 20:57:29 10° NNW
Landsat 4 3.6 20:50:18 10° SSE 20:53:41 65° ENE 20:57:06 10° N
In-Cosmos 22 Rocket 4.2 20:48:22 10° S 20:54:05 75° E 20:59:41 10° NNE
BREEZE-M DEB (TANK) 4.1 20:51:49 10° W 20:54:36 35° S 21:01:19 10° SE
NOSS 2-3 (E) 3.4 20:54:10 10° SSW 20:57:44 50° SE 21:01:48 10° NE
Cosmos 1844 4.1 20:52:50 10° SW 20:58:38 74° NW 21:04:26 10° NNE
Terra 2.3 20:54:07 10° S 20:58:47 61° WSW 21:03:30 10° NNW
SL-8 Rocket 4.4 20:56:33 10° SSE 21:02:29 48° E 21:08:31 10° NNE
USA 305 2.7 21:02:06 10° W 21:05:54 73° N 21:09:18 10° E
ATLAS CENTAUR R/B 2.6 21:03:17 10° WNW 21:06:49 31° WSW 21:10:27 10° S
Cosmos 1437 Rocket 3.3 21:07:20 10° SSE 21:10:40 35° E 21:14:01 10° NNE
Cosmos 1833 Rocket 2.8 21:07:17 10° NNW 21:12:58 84° WSW 21:18:22 11° SSE
CENTAUR R/B 4.4 21:06:40 10° WNW 21:13:12 39° N 21:21:02 10° ENE
Cosmos 1455 Rocket 4.3 21:09:47 10° NNW 21:13:52 38° W 21:17:55 10° SSW
NOSS 2-3 (C) 3.2 21:11:49 10° SW 21:15:27 69° SE 21:19:41 10° NE
Cosmos 1975 Rocket 3.5 21:15:30 10° SSW 21:19:57 67° WNW 21:24:26 10° N
Cosmos 44 3.9 21:16:04 10° S 21:20:55 40° ESE 21:25:37 10° NE
Lacrosse 5 2.0 21:17:46 10° WSW 21:22:51 84° NNW 21:27:57 10° ENE
Cosmos 962 Rocket 4.5 21:16:42 10° S 21:22:54 81° E 21:29:05 10° NNE
Cosmos 220 Rocket 4.4 21:20:15 10° NNW 21:24:19 54° WSW 21:28:09 11° S
ERS-1 Rocket 4.3 21:20:09 10° SSW 21:24:42 34° W 21:29:17 10° NNW
Spot 2 Rocket 4.4 21:20:45 10° S 21:25:37 44° W 21:30:31 10° NNW
Cosmos 2082 Rocket 2.9 21:20:44 10° NNW 21:26:12 48° NE 21:31:37 10° ESE
Cosmos 1606 Rocket 4.4 21:22:27 10° N 21:26:32 38° ENE 21:29:59 13° SE
USA 307 2.7 21:25:14 10° W 21:29:09 80° N 21:32:51 10° E
NOSS 2-2 (D) 2.7 21:26:07 10° SW 21:29:17 89° WNW 21:32:31 10° NE
ATLAS 5 CENTAUR R/B 2.6 21:26:09 10° WSW 21:29:26 40° NNW 21:33:15 10° NE
Landsat 5 3.7 21:25:24 10° NNE 21:29:46 60° ESE 21:34:05 10° S
Cosmos 2218 Rocket 4.1 21:23:59 10° S 21:30:00 61° E 21:36:05 10° NNE
Cosmos 1606 3.8 21:31:01 10° NNW 21:34:19 36° W 21:37:35 10° SSW
Cosmos 1844 Rocket 4.1 21:29:36 10° WSW 21:34:51 41° NW 21:40:09 10° NNE
Cosmos 2278 Rocket 3.0 21:31:13 12° SSE 21:35:45 32° ESE 21:40:44 10° NE
MetOp-A 3.8 21:35:01 12° S 21:39:15 74° WSW 21:43:33 10° NNW
Cosmos 2298 Rocket 4.1 21:34:46 10° S 21:40:01 63° ESE 21:45:18 10° NNE
ULPM Upper Stage 3.4 21:35:45 10° NW 21:40:04 55° NNE 21:44:21 10° ESE
Cosmos 614 Rocket 4.0 21:35:15 10° NNW 21:40:21 76° WSW 21:44:35 15° SSE
Cosmos 2341 Rocket 4.1 21:34:40 10° S 21:40:58 87° ESE 21:47:23 10° NNE
CZ-2C R/B 4.5 21:38:43 10° NNE 21:43:01 37° E 21:46:20 16° SSE
H-2A R/B 3.6 21:44:33 12° ESE 21:47:30 29° ENE 21:50:50 10° N
CZ-4C R/B 3.4 21:43:33 10° NW 21:49:53 55° NNE 21:57:49 10° ESE
Cosmos 1536 Rocket 3.5 21:47:10 12° S 21:51:06 77° E 21:55:26 10° NNE
ISS -3.8 21:50:31 10° W 21:53:49 64° S 21:57:07 10° ESE
Cosmos 2058 Rocket 4.2 21:50:23 10° N 21:54:18 31° ENE 21:57:25 14° SE
COSMOS 2406 3.6 21:50:14 10° NNW 21:55:52 59° NE 22:00:48 14° SE
USA 290 3.4 21:58:14 21° SE 21:59:22 26° ESE 22:02:06 10° NE
ARIANE 5 R/B 2.6 21:58:54 18° SSE 22:02:12 80° ENE 22:06:42 10° NNW
Cosmos 1269 Rocket 4.0 21:57:43 10° NNW 22:03:04 85° ENE 22:07:06 18° SSE
BREEZE-M DEB (TANK) 4.3 21:54:30 10° WNW 22:03:25 27° SW 22:06:11 15° S
Cosmos 1727 Rocket 4.1 21:57:17 10° N 22:03:41 84° ENE 22:08:48 17° SSE
Cosmos 2228 4.1 22:00:29 10° NNW 22:04:24 38° W 22:08:06 11° SSW
ATLAS 3B R/B 3.7 22:01:26 15° SSE 22:06:13 31° ESE 22:12:40 10° NE
Geosat 4.3 22:03:40 10° NNE 22:08:40 70° NW 22:13:39 10° SW
NOSS 8 (E) 4.4 22:08:07 10° NW 22:11:03 71° NE 22:13:29 18° ESE
Cosmos 1943 Rocket 2.8 22:08:20 17° SSE 22:12:07 38° ESE 22:17:17 10° NE
Cosmos 1821 Rocket 4.0 22:09:49 14° S 22:15:16 78° E 22:21:40 10° NNE
USA 281 3.9 22:09:58 10° ESE 22:16:14 50° NE 22:22:33 10° NNW
NOSS 2-3 (D) 4.4 22:15:13 10° WSW 22:18:54 50° NNW 22:23:19 10° NE
Gbstr 26 Del rocket 3.4 22:14:52 10° W 22:19:40 76° S 22:25:39 10° E
Cosmos 2058 3.8 22:19:03 20° SE 22:21:12 34° E 22:24:56 10° NNE
Cosmos 2150 Rocket 4.4 22:16:21 10° SW 22:21:45 69° WNW 22:27:14 10° NNE
ALOS 2 3.2 22:19:19 18° SE 22:22:18 50° ENE 22:26:34 10° N
Cosmos 407 Rocket 4.2 22:19:21 10° NNW 22:24:21 47° NE 22:28:37 14° SE
Cosmos 2084 Rocket 3.4 22:21:13 10° NW 22:25:09 58° SW 22:27:21 24° SSE
Spot 4 3.9 22:23:23 20° SSE 22:26:45 75° ENE 22:31:37 10° NNW
NOSS 3-1 (C) 3.1 22:25:23 10° SSW 22:30:20 68° SE 22:36:27 10° NE
Cosmos 1544 3.1 22:30:25 27° E 22:30:28 27° E 22:32:25 10° NNE
SeaSat 1 2.4 22:26:56 19° SE 22:30:30 89° ENE 22:35:28 10° NNW
Cosmos 1932 4.4 22:26:30 10° NW 22:32:44 79° SW 22:37:30 18° SE
Cosmos 1812 2.5 22:31:02 10° NNW 22:34:36 76° W 22:36:28 26° S
Cosmos 1271 Rocket 4.4 22:33:32 16° ESE 22:35:01 20° E 22:37:48 10° NE
USA 305 2.1 22:34:38 10° WNW 22:38:15 86° SSW 22:40:35 16° ESE
Cosmos 1238 Rocket 3.0 22:36:53 10° N 22:40:07 50° ENE 22:42:01 24° SE
PSLV R/B 3.8 22:38:19 10° NNE 22:42:20 85° ESE 22:44:51 22° SSW
Aureole 2 4.2 22:41:11 22° SSW 22:43:06 83° WNW 22:46:35 10° NNE
BREEZE-M R/B 4.1 22:38:38 10° WSW 22:43:16 60° SSE 22:59:56 10° E
Cosmos 2251 Rocket 3.9 22:41:38 10° NNW 22:46:58 60° ENE 22:51:01 17° SE
Cosmos 1892 Rocket 3.5 22:45:05 22° S 22:47:58 86° ESE 22:52:27 10° NNE
Cosmos 1626 Rocket 4.5 22:48:21 21° SE 22:50:29 34° E 22:54:24 10° NNE
Cosmos 1933 4.3 22:47:10 10° N 22:50:52 37° ENE 22:53:09 19° SE
Cosmos 1140 Rocket 3.4 22:46:21 10° NNW 22:51:31 83° WSW 22:54:48 23° SSE
MINOTAUR 4 R/B 3.4 22:53:07 10° NNE 22:55:58 86° WNW 22:57:02 35° SSW
BREEZE-M DEB (TANK) 4.1 22:58:58 10° W 23:01:56 42° S 23:09:30 10° ESE
Cosmos 44 4.2 22:56:58 10° WSW 23:02:04 53° NW 23:06:55 10° NE
USA 307 2.3 22:58:38 10° WNW 23:02:29 79° SSW 23:05:32 13° ESE
Cosmos 2123 Rocket 4.1 22:57:13 10° NNW 23:03:30 77° W 23:07:51 21° S
Cosmos-2242 3.1 22:59:19 10° N 23:03:32 64° ENE 23:05:51 25° SSE
CENTAUR R/B 3.8 22:57:57 10° NW 23:05:26 56° NNE 23:14:14 10° ESE
Lacrosse 5 2.6 23:01:12 10° W 23:06:12 56° N 23:11:13 10° ENE
NOSS 3-1 (A) 3.2 23:03:57 17° SSW 23:07:46 62° SE 23:13:51 10° NE
Cosmos 2082 Rocket 2.9 23:05:01 10° NW 23:10:14 40° WSW 23:13:28 21° SSW
Cosmos 1515 3.4 23:09:58 10° N 23:13:28 77° ENE 23:14:57 32° SSE
ATLAS 5 CENTAUR R/B 4.2 23:11:11 10° NW 23:14:11 21° N 23:17:37 10° NE
ULPM Upper Stage 3.5 23:15:22 10° WNW 23:19:23 36° SW 23:20:59 27° S
Cosmos 2278 Rocket 2.7 23:13:59 10° SW 23:19:34 58° NW 23:25:12 10° NNE
PSLV R/B 3.8 23:15:46 10° NNE 23:20:02 59° ESE 23:22:20 27° S
Lacrosse 4 Rocket 3.5 23:20:40 11° ESE 23:21:31 12° ESE 23:23:09 10° E
Cosmos 2369 Rocket 3.3 23:19:37 20° SSE 23:22:19 29° ESE 23:27:05 10° NE
H-2A R/B 3.4 23:20:31 21° SW 23:22:22 33° W 23:25:53 10° NNW
Iridium 4 Rocket 4.3 23:22:19 10° N 23:27:51 51° E 23:31:55 19° SSE
Cosmos 489 Rocket 4.4 23:24:24 20° SSW 23:28:49 78° ESE 23:35:05 10° NNE
Cosmos 1190 Rocket 4.0 23:23:53 10° NNW 23:29:09 79° ENE 23:32:46 20° SSE
ISS -3.0 23:27:17 10° W 23:30:10 32° SSW 23:30:10 32° SSW
Cosmos 2058 Rocket 4.1 23:28:18 10° NNW 23:32:16 34° W 23:34:37 20° SW
Cosmos 676 Rocket 4.5 23:27:20 10° NNW 23:32:28 56° ENE 23:36:47 14° SE
Cosmos 1782 2.9 23:29:08 10° NNW 23:32:54 61° W 23:34:35 30° SSW
USA 290 4.1 23:30:56 10° WSW 23:33:42 27° NW 23:36:31 10° N
CRYOSAT 2 4.5 23:30:04 10° N 23:34:57 71° W 23:37:58 23° SSW
USA 229 DEB 4.1 23:32:18 23° S 23:35:43 41° ESE 23:42:00 10° NE
USA 229 4.1 23:32:27 23° S 23:35:51 40° ESE 23:42:06 10° NE
Cosmos 1378 2.7 23:33:47 10° NNW 23:37:01 69° W 23:38:07 37° S
Cosmos 1862 3.6 23:35:38 28° SSE 23:37:18 50° E 23:41:03 10° NNE
CZ-4C R/B 3.0 23:31:52 10° NW 23:38:43 64° SW 23:45:35 16° SSE
Cosmos 482 Debris 3.9 23:35:02 10° WSW 23:39:22 64° S 23:42:32 10° E
COSMOS 2455 3.3 23:33:39 10° NW 23:39:41 63° NE 23:45:40 10° SE
Meteor 2-2 Rocket 4.4 23:34:02 10° NNW 23:39:44 70° W 23:43:24 23° S
COSMOS 2406 4.3 23:34:57 10° NW 23:39:53 32° WSW 23:42:50 20° SSW
Cosmos 1934 Rocket 4.3 23:39:12 18° SSW 23:43:59 60° WNW 23:50:09 10° N
Cosmos 2221 3.1 23:40:03 10° N 23:44:11 49° ENE 23:46:52 20° SE
GRACE-FO 1 4.5 23:44:07 33° S 23:45:39 87° W 23:49:17 10° N
GRACE-FO 2 4.5 23:44:31 33° S 23:46:03 86° W 23:49:40 10° N
Cosmos 2285 Rocket 4.0 23:44:34 10° NNW 23:51:02 77° WSW 23:55:34 21° SSE
USA 81 4.4 23:48:44 10° NNW 23:53:53 56° W 23:57:04 23° SSW
